Weather History for Figari, France

Change the Weather History Date:

Wednesday, April 17, 2013

  Actual Average Record
Temperature  
Mean Temperature 59 °F -  
Max Temperature 77 °F 68 °F 77 °F (2013)
Min Temperature 41 °F 54 °F 30 °F (2014)
Degree Days  
Heating Degree Days 6    
Growing Degree Days 9 (Base 50)    
Moisture  
Dew Point 45 °F    
Average Humidity 68    
Maximum Humidity 100    
Minimum Humidity 31    
Precipitation  
Precipitation 0.00 in - - ()
Sea Level Pressure  
Sea Level Pressure 30.18 in    
Wind  
Wind Speed 3 mph ()    
Max Wind Speed 12 mph    
Max Gust Speed -    
Visibility 6.2 miles    
Events      
Averages and records for this station are not official NWS values.
T = Trace of Precipitation, MM = Missing Value Source: Averaged Metar Reports

Daily Weather History Graph

Daily Weather History Graph

Search for Another Location

Airport:

Trip Planner

Search our weather history database for the weather conditions in past years. The results will help you decide how hot, cold, wet, or windy it might be!

Date:

Astronomy

Apr. 17, 2013 Rise Set
Actual Time 6:40 AM CEST 8:06 PM CEST
Civil Twilight 6:11 AM CEST 8:35 PM CEST
Nautical Twilight 5:37 AM CEST 9:10 PM CEST
Astronomical Twilight 5:00 AM CEST 9:47 PM CEST
Moon 11:37 AM CEST (4/17) 1:34 AM CEST (4/17)
Length of Visible Light 14h 23m
Length of Day
13h 25m
Waxing Crescent, 40% of the Moon is Illuminated
Apr 17
Waxing Crescent
Apr 18
First Quarter
Apr 25
Full
May 2
Last Quarter
May 10
New

Hourly Weather History & Observations

Time (CEST) Temp. Windchill Dew Point Humidity Pressure Visibility Wind Dir Wind Speed Gust Speed Precip Events Conditions
12:00 AM 46.4 °F 45.2 °F 44.6 °F 93% 30.18 in 6.2 mi NNE 3.5 mph - N/A   Unknown
12:30 AM 46.4 °F - 42.8 °F 87% 30.18 in 6.2 mi Calm Calm - N/A   Unknown
1:00 AM 44.6 °F - 42.8 °F 93% 30.18 in 6.2 mi Calm Calm - N/A   Unknown
1:30 AM 44.6 °F - 42.8 °F 93% 30.18 in 6.2 mi NE 2.3 mph - N/A   Unknown
2:00 AM 44.6 °F - 42.8 °F 93% 30.18 in 6.2 mi NE 2.3 mph - N/A   Unknown
2:30 AM 42.8 °F - 41.0 °F 93% 30.18 in 6.2 mi Calm Calm - N/A   Unknown
3:00 AM 42.8 °F - 41.0 °F 93% 30.18 in 6.2 mi North 1.2 mph - N/A   Unknown
3:30 AM 42.8 °F - 41.0 °F 93% 30.18 in 6.2 mi Calm Calm - N/A   Unknown
4:00 AM 42.8 °F - 41.0 °F 93% 30.18 in 6.2 mi NE 1.2 mph - N/A   Unknown
4:30 AM 42.8 °F - 41.0 °F 93% 30.18 in 6.2 mi Calm Calm - N/A   Unknown
5:00 AM 41.0 °F - 39.2 °F 93% 30.18 in 6.2 mi Calm Calm - N/A   Unknown
5:30 AM 41.0 °F - 39.2 °F 93% 30.18 in 6.2 mi NNE 2.3 mph - N/A   Unknown
6:00 AM 41.0 °F - 39.2 °F 93% 30.18 in 6.2 mi Calm Calm - N/A   Unknown
6:30 AM 41.0 °F - 39.2 °F 93% 30.18 in 6.2 mi Calm Calm - N/A   Unknown
7:00 AM 42.8 °F - 41.0 °F 93% 30.18 in 6.2 mi NNE 2.3 mph - N/A   Unknown
7:30 AM 46.4 °F - 44.6 °F 93% 30.18 in 6.2 mi Calm Calm - N/A   Unknown
8:00 AM 50.0 °F - 50.0 °F 100% 30.18 in 6.2 mi Calm Calm - N/A   Unknown
8:30 AM 53.6 °F - 51.8 °F 94% 30.21 in 6.2 mi Variable 1.2 mph - N/A   Unknown
9:00 AM 59.0 °F - 53.6 °F 82% 30.21 in 6.2 mi Calm Calm - N/A   Unknown
9:30 AM 62.6 °F - 51.8 °F 68% 30.21 in 6.2 mi Variable 2.3 mph - N/A   Unknown
10:00 AM 64.4 °F - 51.8 °F 64% 30.21 in 6.2 mi Calm Calm - N/A   Unknown
10:30 AM 69.8 °F - 51.8 °F 53% 30.21 in 6.2 mi ENE 3.5 mph - N/A   Unknown
11:00 AM 71.6 °F - 46.4 °F 41% 30.21 in 6.2 mi ENE 10.4 mph - N/A   Unknown
11:30 AM 73.4 °F - 48.2 °F 41% 30.21 in 6.2 mi East 11.5 mph - N/A   Unknown
12:00 PM 73.4 °F - 46.4 °F 38% 30.21 in 6.2 mi East 11.5 mph - N/A   Unknown
12:30 PM 73.4 °F - 48.2 °F 41% 30.21 in 6.2 mi East 11.5 mph - N/A   Unknown
1:00 PM 73.4 °F - 48.2 °F 41% 30.21 in 6.2 mi East 11.5 mph - N/A   Unknown
1:30 PM 73.4 °F - 48.2 °F 41% 30.18 in 6.2 mi East 9.2 mph - N/A   Unknown
2:00 PM 75.2 °F - 42.8 °F 31% 30.18 in 6.2 mi East 10.4 mph - N/A   Unknown
2:30 PM 75.2 °F - 44.6 °F 34% 30.18 in 6.2 mi ENE 8.1 mph - N/A   Unknown
3:00 PM 75.2 °F - 44.6 °F 34% 30.18 in 6.2 mi NE 6.9 mph - N/A   Unknown
3:30 PM 75.2 °F - 44.6 °F 34% 30.18 in 6.2 mi ENE 6.9 mph - N/A   Unknown
4:00 PM 75.2 °F - 44.6 °F 34% 30.18 in 6.2 mi ENE 6.9 mph - N/A   Unknown
4:30 PM 77.0 °F - 44.6 °F 32% 30.15 in 6.2 mi ENE 6.9 mph - N/A   Unknown
5:00 PM 75.2 °F - 44.6 °F 34% 30.15 in 6.2 mi ENE 5.8 mph - N/A   Unknown
5:30 PM 75.2 °F - 46.4 °F 36% 30.15 in 6.2 mi ENE 5.8 mph - N/A   Unknown
6:00 PM 75.2 °F - 46.4 °F 36% 30.15 in 6.2 mi Variable 3.5 mph - N/A   Unknown
6:30 PM 73.4 °F - 48.2 °F 41% 30.15 in 6.2 mi SSW 5.8 mph - N/A   Unknown
7:00 PM 69.8 °F - 48.2 °F 46% 30.15 in 6.2 mi SSW 4.6 mph - N/A   Unknown
7:30 PM 68.0 °F - 46.4 °F 46% 30.15 in 6.2 mi Variable 3.5 mph - N/A   Unknown
8:00 PM 64.4 °F - 50.0 °F 59% 30.15 in 6.2 mi Calm Calm - N/A   Unknown
8:30 PM 59.0 °F - 48.2 °F 67% 30.15 in 6.2 mi Variable 1.2 mph - N/A   Unknown
9:00 PM 53.6 °F - 46.4 °F 77% 30.18 in 6.2 mi Calm Calm - N/A   Unknown
9:30 PM 51.8 °F - 48.2 °F 88% 30.18 in 6.2 mi North 2.3 mph - N/A   Unknown
10:00 PM 50.0 °F - 46.4 °F 87% 30.18 in 6.2 mi NE 2.3 mph - N/A   Unknown
10:30 PM 48.2 °F - 44.6 °F 87% 30.18 in 6.2 mi NNE 2.3 mph - N/A   Unknown
11:00 PM 48.2 °F - 44.6 °F 87% 30.18 in 6.2 mi NNE 2.3 mph - N/A   Unknown
11:30 PM 46.4 °F - 44.6 °F 93% 30.18 in 6.2 mi Calm Calm - N/A   Unknown